Weather Roundup
Issued by NWS Chicago, IL

Home | Current Version | Previous Version | Text Only | Print | Product List | Glossary Off
Versions: 1 2 3 4 5 6 7 8 9 10 11 12 13 14 15 16 17 18 19 20 21 22 23 24 25 26 27 28 29 30 31 32 33 34 35 36 37 38 39 40 41 42 43 44 45 46 47 48 49 50

000
NZUS59 KLOT 062108
HRRLOT

CHICAGO AREA WEATHER ROUNDUP
NATIONAL WEATHER SERVICE CHICAGO/ROMEOVILLE IL
400 PM CDT MON JUL 06 2015

NOTE: "FAIR" INDICATES FEW OR NO CLOUDS BELOW 12,000 FEET WITH NO
SIGNIFICANT WEATHER AND/OR OBSTRUCTIONS TO VISIBILITY.

* THESE STATIONS ARE NOT UNDER NWS QUALITY CONTROL. THEY ALSO MAY NOT
  REPORT WEATHER SUCH AS PRECIPITATION OR FOG.

ILZ005-006-012>014-019>023-062200-
NORTHEAST ILLINOIS

CITY           SKY/WX    TMP DP  RH WIND       PRES   REMARKS
OHARE          CLOUDY    76  70  82 S8        29.90F
MIDWAY         CLOUDY    79  70  74 S12       29.91F HX  82
AURORA         CLOUDY    81  70  69 S13G21    29.89F HX  84
LANSING*       CLOUDY    84  67  56 S13       29.92F HX  87
JOLIET*        CLOUDY    78  72  82 SE6       29.89F HX  81
WAUKEGAN       CLOUDY    73  70  90 SE10      29.86F
DUPAGE AIRPORT CLOUDY    77  71  82 S7        29.89F
WHEELING       CLOUDY    75  70  84 S9        29.91F
KANKAKEE*      LGT RAIN  80  75  83 S7        29.92F HX  86
MORRIS*        CLOUDY    84  70  62 S7        29.88F HX  88
LEWIS AIRPORT* CLOUDY    77  72  86 S8        29.90F
NORTHERLY IS     N/A     76  67  73 S7          N/A
$$

WIZ051-052-058>065-066-070>072-062200-
SOUTHEAST WISCONSIN

CITY           SKY/WX    TMP DP  RH WIND       PRES   REMARKS
MILWAUKEE      CLOUDY    77  68  73 S13       29.84F
KENOSHA*       CLOUDY    75  69  81 S10       29.86F
RACINE*        LGT RAIN  74  69  85 S9        29.87F
BURLINGTON     CLOUDY    74  70  86 S8        29.86F
WAUKESHA       PTSUNNY   75  70  83 S8        29.86S
WEST BEND      CLOUDY    77  70  78 S9        29.84S
$$

INZ001>003-010>013-019-020-062200-
NORTHWEST INDIANA

CITY           SKY/WX    TMP DP  RH WIND       PRES   REMARKS
GARY*          CLOUDY   N/A N/A N/A S6        29.92F
MICHIGAN CITY* NOT AVBL
RENSSELAER*    NOT AVBL
VALPARAISO     PTSUNNY   84  69  60 S12       29.95F HX  88
$$

LMZ740>746-062200-
SOUTHERN LAKE MICHIGAN

STATION/POSITION TIME  SKY/WX   TEMP WIND        PRES    VSBY
                                AIR  DIR/SP/G
                 (UTC)          (F)  (DEG/KT/KT) (MB)    (MI)
HARRISON CRIB    2000            74  300/ 23/ 26   N/A
BURNHAM HARBOR   2000            80  290/ 13/ 18   N/A
CALUMET HARBOR   2000            85  180/  8/ 16   N/A
BURNS HARBOR     2000            84  180/ 12/ 21 1013.9S
MICHIGAN CITY    2000            82  180/ 14/ 19   N/A
$$

ABBREVIATIONS USED IN REMARKS
   TC - TEMPERATURE IN CELSIUS
  WCI - WIND CHILL INDEX
   HX - HEAT INDEX
  VSB - VISIBILITY
$$



USA.gov is the U.S. government's official web portal to all federal, state and local government web resources and services.